P/1999 RO28 ( LONEOS )

Japanese version
Home page
Updated on June 12, 2026

---------------------------------------------------------------------

* Profile

Discovery Date September 7, 1999
Magnitude 18.4 mag
Discoverer Lowell Observatory Near-Earth Object Search

* Orbital Elements

                    Epoch = 1999 Sept.19.0 TT
     T = 1999 Oct.  2.34428 TT        Peri. = 219.85987
     e = 0.6507913                    Node  = 148.45005 2000.0
     q = 1.2317607 AU                 Incl. =   8.19105
       a =  3.5272915 AU   n = 0.14877914   P =   6.62 years

* Finding Charts

* Magnitudes Graph

        m1 = 20.5 + 5 log d + 10.0 log r

---------------------------------------------------------------------

The orbital elements are printed on CBET 5702.
The charts are made with StellaNavigator Ver.2.0 for Windows (AstroArts / ASCII).
The magnitudes graphs are made with Comet for Windows.

---------------------------------------------------------------------

Copyright(C) Seiichi Yoshida (comet@aerith.net). All rights reserved.